Data supplied by UK-AIR on 26/3/2020
All Data GMT hour ending 
Status: R =Ratified P=Provisional,P*=As supplied
,,London Hillingdon,,,,,,,,,,,,,,,,,,,,,,,
Date,time,"Nitric oxide",status,unit,"Nitrogen dioxide",status,unit,"Nitrogen oxides as nitrogen dioxide",status,unit,"Ozone",status,unit
 
01-01-2019,01:00,,,,,,,,,,60.20362,R,ugm-3
01-01-2019,02:00,,,,,,,,,,62.46541,R,ugm-3
01-01-2019,03:00,,,,,,,,,,65.55875,R,ugm-3
01-01-2019,04:00,,,,,,,,,,63.56305,R,ugm-3
01-01-2019,05:00,,,,,,,,,,54.73207,R,ugm-3
01-01-2019,06:00,,,,,,,,,,35.62325,R,ugm-3
01-01-2019,07:00,,,,,,,,,,32.33034,R,ugm-3
01-01-2019,08:00,,,,,,,,,,33.22841,R,ugm-3
01-01-2019,09:00,,,,,,,,,,21.65335,R,ugm-3
01-01-2019,10:00,,,,,,,,,,35.07443,R,ugm-3
01-01-2019,11:00,,,,,,,,,,44.30454,R,ugm-3
01-01-2019,12:00,,,,,,,,,,53.78412,R,ugm-3
01-01-2019,13:00,,,,,,,,,,54.88175,R,ugm-3
01-01-2019,14:00,,,,,,,,,,51.33938,R,ugm-3
01-01-2019,15:00,,,,,,,,,,46.54970,R,ugm-3
01-01-2019,16:00,,,,,,,,,,45.00304,R,ugm-3
01-01-2019,17:00,,,,,,,,,,36.82067,R,ugm-3
01-01-2019,18:00,,,,,,,,,,45.30239,R,ugm-3
01-01-2019,19:00,,,,,,,,,,45.20261,R,ugm-3
01-01-2019,20:00,,,,,,,,,,40.71228,R,ugm-3
01-01-2019,21:00,,,,,,,,,,51.08992,R,ugm-3
01-01-2019,22:00,,,,,,,,,,58.07487,R,ugm-3
01-01-2019,23:00,,,,,,,,,,54.03358,R,ugm-3
01-01-2019,24:00,,,,,,,,,,51.68863,R,ugm-3
02-01-2019,01:00,,,,,,,,,,50.82383,R,ugm-3
02-01-2019,02:00,,,,,,,,,,50.75730,R,ugm-3
02-01-2019,03:00,,,,,,,,,,44.90325,R,ugm-3
02-01-2019,04:00,,,,,,,,,,44.70368,R,ugm-3
02-01-2019,05:00,,,,,,,,,,48.99444,R,ugm-3
02-01-2019,06:00,,,,,,,,,,49.79272,R,ugm-3
02-01-2019,07:00,,,,,,,,,,39.21551,R,ugm-3
02-01-2019,08:00,,,,,,,,,,27.64045,R,ugm-3
02-01-2019,09:00,,,,,,,,,,23.74883,R,ugm-3
02-01-2019,10:00,,,,,,,,,,35.57335,R,ugm-3
02-01-2019,11:00,,,,,,,,,,39.91400,R,ugm-3
02-01-2019,12:00,,,,,,,,,,48.19616,R,ugm-3
02-01-2019,13:00,,,,,,,,,,55.43057,R,ugm-3
02-01-2019,14:00,1.20572,R,ugm-3,20.01750,R,ugm-3,21.86625,R,ugm-3,59.97079,R,ugm-3
02-01-2019,15:00,2.18278,R,ugm-3,20.94188,R,ugm-3,24.28875,R,ugm-3,59.12261,R,ugm-3
02-01-2019,16:00,1.06021,R,ugm-3,28.20938,R,ugm-3,29.83500,R,ugm-3,50.99014,R,ugm-3
02-01-2019,17:00,0.96666,R,ugm-3,29.35688,R,ugm-3,30.83906,R,ugm-3,51.13981,R,ugm-3
02-01-2019,18:00,1.09139,R,ugm-3,29.59594,R,ugm-3,31.26938,R,ugm-3,51.58885,R,ugm-3
02-01-2019,19:00,1.30967,R,ugm-3,39.58875,R,ugm-3,41.59688,R,ugm-3,39.96389,R,ugm-3
02-01-2019,20:00,1.40321,R,ugm-3,43.70063,R,ugm-3,45.85219,R,ugm-3,34.67529,R,ugm-3
02-01-2019,21:00,1.27848,R,ugm-3,42.74438,R,ugm-3,44.70469,R,ugm-3,32.62970,R,ugm-3
02-01-2019,22:00,1.18494,R,ugm-3,38.77594,R,ugm-3,40.59281,R,ugm-3,33.17851,R,ugm-3
02-01-2019,23:00,1.02902,R,ugm-3,31.41281,R,ugm-3,32.99063,R,ugm-3,37.02024,R,ugm-3
02-01-2019,24:00,1.09139,R,ugm-3,37.24594,R,ugm-3,38.91938,R,ugm-3,29.98539,R,ugm-3
03-01-2019,01:00,4.48044,R,ugm-3,35.44528,R,ugm-3,42.31519,R,ugm-3,31.26597,R,ugm-3
03-01-2019,02:00,1.41051,R,ugm-3,28.18965,R,ugm-3,30.35240,R,ugm-3,36.45479,R,ugm-3
03-01-2019,03:00,0.90231,R,ugm-3,20.04451,R,ugm-3,21.42803,R,ugm-3,48.69508,R,ugm-3
03-01-2019,04:00,0.80897,R,ugm-3,17.61054,R,ugm-3,18.85094,R,ugm-3,50.74067,R,ugm-3
03-01-2019,05:00,0.80897,R,ugm-3,21.04666,R,ugm-3,22.28706,R,ugm-3,47.64734,R,ugm-3
03-01-2019,06:00,1.02677,R,ugm-3,20.76043,R,ugm-3,22.33478,R,ugm-3,51.78842,R,ugm-3
03-01-2019,07:00,1.08900,R,ugm-3,28.87352,R,ugm-3,30.54329,R,ugm-3,44.50411,R,ugm-3
03-01-2019,08:00,2.05354,R,ugm-3,44.52746,R,ugm-3,47.67617,R,ugm-3,32.87916,R,ugm-3
03-01-2019,09:00,2.45802,R,ugm-3,42.42782,R,ugm-3,46.19673,R,ugm-3,36.22196,R,ugm-3
03-01-2019,10:00,1.52460,R,ugm-3,23.86274,R,ugm-3,26.20042,R,ugm-3,56.22885,R,ugm-3
03-01-2019,11:00,1.43125,R,ugm-3,17.46769,R,ugm-3,19.66225,R,ugm-3,64.01208,R,ugm-3
03-01-2019,12:00,1.24457,R,ugm-3,15.51091,R,ugm-3,17.41922,R,ugm-3,65.25939,R,ugm-3
03-01-2019,13:00,1.55571,R,ugm-3,17.22914,R,ugm-3,19.61452,R,ugm-3,64.41122,R,ugm-3
03-01-2019,14:00,1.52460,R,ugm-3,17.03822,R,ugm-3,19.37590,R,ugm-3,64.61079,R,ugm-3
03-01-2019,15:00,1.24457,R,ugm-3,19.04248,R,ugm-3,20.95079,R,ugm-3,61.76692,R,ugm-3
03-01-2019,16:00,1.12011,R,ugm-3,20.66503,R,ugm-3,22.38251,R,ugm-3,60.07057,R,ugm-3
03-01-2019,17:00,1.77351,R,ugm-3,24.29239,R,ugm-3,27.01173,R,ugm-3,55.03143,R,ugm-3
03-01-2019,18:00,2.02242,R,ugm-3,42.76166,R,ugm-3,45.86266,R,ugm-3,36.22196,R,ugm-3
03-01-2019,19:00,2.58248,R,ugm-3,38.99177,R,ugm-3,42.95151,R,ugm-3,38.96604,R,ugm-3
03-01-2019,20:00,1.68017,R,ugm-3,41.71156,R,ugm-3,44.28778,R,ugm-3,33.37808,R,ugm-3
03-01-2019,21:00,1.96019,R,ugm-3,40.99585,R,ugm-3,44.00143,R,ugm-3,29.58625,R,ugm-3
03-01-2019,22:00,2.08465,R,ugm-3,46.72278,R,ugm-3,49.91920,R,ugm-3,21.25421,R,ugm-3
03-01-2019,23:00,3.04919,R,ugm-3,55.79082,R,ugm-3,60.46618,R,ugm-3,11.32560,R,ugm-3
03-01-2019,24:00,2.17799,R,ugm-3,52.30652,R,ugm-3,55.64606,R,ugm-3,10.87657,R,ugm-3
04-01-2019,01:00,2.56646,R,ugm-3,53.29069,R,ugm-3,57.22587,R,ugm-3,8.04932,R,ugm-3
04-01-2019,02:00,2.35948,R,ugm-3,48.78100,R,ugm-3,52.39882,R,ugm-3,10.71026,R,ugm-3
04-01-2019,03:00,3.84968,R,ugm-3,50.49742,R,ugm-3,56.40019,R,ugm-3,8.98065,R,ugm-3
04-01-2019,04:00,3.60132,R,ugm-3,45.35255,R,ugm-3,50.87449,R,ugm-3,13.92001,R,ugm-3
04-01-2019,05:00,2.32844,R,ugm-3,32.48970,R,ugm-3,36.05992,R,ugm-3,25.14582,R,ugm-3
04-01-2019,06:00,3.57027,R,ugm-3,28.87071,R,ugm-3,34.34505,R,ugm-3,28.73808,R,ugm-3
04-01-2019,07:00,2.04903,R,ugm-3,32.91812,R,ugm-3,36.05992,R,ugm-3,22.90066,R,ugm-3
04-01-2019,08:00,9.00330,R,ugm-3,45.26290,R,ugm-3,59.06776,R,ugm-3,14.11958,R,ugm-3
04-01-2019,09:00,37.72070,R,ugm-3,60.48847,R,ugm-3,118.32607,R,ugm-3,2.34495,R,ugm-3
04-01-2019,10:00,33.49847,R,ugm-3,56.95906,R,ugm-3,108.32266,R,ugm-3,6.93506,R,ugm-3
04-01-2019,11:00,23.09811,R,ugm-3,46.84955,R,ugm-3,82.26615,R,ugm-3,13.52087,R,ugm-3
04-01-2019,12:00,21.20431,R,ugm-3,43.94182,R,ugm-3,76.45465,R,ugm-3,19.35829,R,ugm-3
04-01-2019,13:00,9.56212,R,ugm-3,32.06851,R,ugm-3,46.73022,R,ugm-3,32.62970,R,ugm-3
04-01-2019,14:00,3.01145,R,ugm-3,19.91469,R,ugm-3,24.53218,R,ugm-3,47.79702,R,ugm-3
04-01-2019,15:00,2.54576,R,ugm-3,22.62942,R,ugm-3,26.53286,R,ugm-3,47.09852,R,ugm-3
04-01-2019,16:00,2.51471,R,ugm-3,30.34630,R,ugm-3,34.20214,R,ugm-3,38.41723,R,ugm-3
04-01-2019,17:00,2.32844,R,ugm-3,46.16102,R,ugm-3,49.73125,R,ugm-3,22.75098,R,ugm-3
04-01-2019,18:00,15.15037,R,ugm-3,71.84980,R,ugm-3,95.08005,R,ugm-3,3.19312,R,ugm-3
04-01-2019,19:00,8.84807,R,ugm-3,65.79355,R,ugm-3,79.36040,R,ugm-3,5.08904,R,ugm-3
04-01-2019,20:00,6.58172,R,ugm-3,58.88408,R,ugm-3,68.97590,R,ugm-3,5.83742,R,ugm-3
04-01-2019,21:00,4.16014,R,ugm-3,51.64099,R,ugm-3,58.01979,R,ugm-3,9.92861,R,ugm-3
04-01-2019,22:00,2.14216,R,ugm-3,42.25474,R,ugm-3,45.53934,R,ugm-3,16.56431,R,ugm-3
04-01-2019,23:00,2.32844,R,ugm-3,43.44581,R,ugm-3,47.01603,R,ugm-3,14.56861,R,ugm-3
04-01-2019,24:00,1.61438,R,ugm-3,40.72986,R,ugm-3,43.20521,R,ugm-3,14.56861,R,ugm-3
05-01-2019,01:00,1.28041,R,ugm-3,35.88391,R,ugm-3,37.84716,R,ugm-3,15.89908,R,ugm-3
05-01-2019,02:00,1.19780,R,ugm-3,30.43176,R,ugm-3,32.26835,R,ugm-3,18.62653,R,ugm-3
05-01-2019,03:00,1.42497,R,ugm-3,27.10384,R,ugm-3,29.28876,R,ugm-3,19.15872,R,ugm-3
05-01-2019,04:00,1.98256,R,ugm-3,26.05869,R,ugm-3,29.09858,R,ugm-3,19.50797,R,ugm-3
05-01-2019,05:00,1.82767,R,ugm-3,25.63053,R,ugm-3,28.43292,R,ugm-3,20.60560,R,ugm-3
05-01-2019,06:00,2.32331,R,ugm-3,34.66517,R,ugm-3,38.22754,R,ugm-3,13.72044,R,ugm-3
05-01-2019,07:00,1.64181,R,ugm-3,29.52907,R,ugm-3,32.04647,R,ugm-3,21.65335,R,ugm-3
05-01-2019,08:00,1.82767,R,ugm-3,33.42818,R,ugm-3,36.23058,R,ugm-3,22.80087,R,ugm-3
05-01-2019,09:00,1.17715,R,ugm-3,22.58652,R,ugm-3,24.39145,R,ugm-3,40.46282,R,ugm-3
05-01-2019,10:00,1.08421,R,ugm-3,17.49888,R,ugm-3,19.16132,R,ugm-3,47.84691,R,ugm-3
05-01-2019,11:00,1.27008,R,ugm-3,14.26600,R,ugm-3,16.21342,R,ugm-3,52.53680,R,ugm-3
05-01-2019,12:00,1.39399,R,ugm-3,15.59750,R,ugm-3,17.73492,R,ugm-3,53.53465,R,ugm-3
05-01-2019,13:00,1.92061,R,ugm-3,21.11374,R,ugm-3,24.05863,R,ugm-3,50.39143,R,ugm-3
05-01-2019,14:00,1.39399,R,ugm-3,21.77857,R,ugm-3,23.91599,R,ugm-3,49.59315,R,ugm-3
05-01-2019,15:00,1.39399,R,ugm-3,22.01630,R,ugm-3,24.15372,R,ugm-3,47.74712,R,ugm-3
05-01-2019,16:00,1.14617,R,ugm-3,26.91322,R,ugm-3,28.67066,R,ugm-3,41.61035,R,ugm-3
05-01-2019,17:00,1.67279,R,ugm-3,37.13658,R,ugm-3,39.70149,R,ugm-3,30.33464,R,ugm-3
05-01-2019,18:00,5.08031,R,ugm-3,51.07310,R,ugm-3,58.86280,R,ugm-3,21.90281,R,ugm-3
05-01-2019,19:00,8.11611,R,ugm-3,61.44303,R,ugm-3,73.88756,R,ugm-3,16.11528,R,ugm-3
05-01-2019,20:00,3.90317,R,ugm-3,46.88715,R,ugm-3,52.87192,R,ugm-3,22.00259,R,ugm-3
05-01-2019,21:00,10.50138,R,ugm-3,62.49279,R,ugm-3,78.59468,R,ugm-3,10.52732,R,ugm-3
05-01-2019,22:00,41.47889,R,ugm-3,79.46791,R,ugm-3,143.06799,R,ugm-3,2.69420,R,ugm-3
05-01-2019,23:00,26.57871,R,ugm-3,69.36468,R,ugm-3,110.11813,R,ugm-3,4.78968,R,ugm-3
05-01-2019,24:00,8.08513,R,ugm-3,61.49053,R,ugm-3,73.88756,R,ugm-3,8.53162,R,ugm-3
06-01-2019,01:00,3.95638,R,ugm-3,53.54100,R,ugm-3,59.60736,R,ugm-3,12.57291,R,ugm-3
06-01-2019,02:00,6.42911,R,ugm-3,48.92692,R,ugm-3,58.78475,R,ugm-3,16.96345,R,ugm-3
06-01-2019,03:00,2.31819,R,ugm-3,37.40182,R,ugm-3,40.95633,R,ugm-3,25.19571,R,ugm-3
06-01-2019,04:00,3.52365,R,ugm-3,35.55348,R,ugm-3,40.95633,R,ugm-3,24.34754,R,ugm-3
06-01-2019,05:00,1.11273,R,ugm-3,23.68391,R,ugm-3,25.39008,R,ugm-3,31.98109,R,ugm-3
06-01-2019,06:00,1.48364,R,ugm-3,25.10843,R,ugm-3,27.38332,R,ugm-3,27.84002,R,ugm-3
06-01-2019,07:00,2.81274,R,ugm-3,36.40624,R,ugm-3,40.71904,R,ugm-3,19.75743,R,ugm-3
06-01-2019,08:00,1.88546,R,ugm-3,29.71271,R,ugm-3,32.60371,R,ugm-3,23.84862,R,ugm-3
06-01-2019,09:00,1.94728,R,ugm-3,29.47555,R,ugm-3,32.46133,R,ugm-3,22.40173,R,ugm-3
06-01-2019,10:00,4.69820,R,ugm-3,32.56608,R,ugm-3,39.76988,R,ugm-3,21.25421,R,ugm-3
06-01-2019,11:00,7.44911,R,ugm-3,31.00571,R,ugm-3,42.42753,R,ugm-3,24.99614,R,ugm-3
06-01-2019,12:00,3.36910,R,ugm-3,23.92592,R,ugm-3,29.09181,R,ugm-3,35.82282,R,ugm-3
06-01-2019,13:00,2.19455,R,ugm-3,17.94375,R,ugm-3,21.30868,R,ugm-3,46.35013,R,ugm-3
06-01-2019,14:00,1.76182,R,ugm-3,18.36996,R,ugm-3,21.07139,R,ugm-3,46.54970,R,ugm-3
06-01-2019,15:00,2.10183,R,ugm-3,26.39109,R,ugm-3,29.61385,R,ugm-3,37.71873,R,ugm-3
06-01-2019,16:00,2.07092,R,ugm-3,32.65550,R,ugm-3,35.83086,R,ugm-3,29.98539,R,ugm-3
06-01-2019,17:00,5.03820,R,ugm-3,52.87885,R,ugm-3,60.60398,R,ugm-3,12.87227,R,ugm-3
06-01-2019,18:00,3.52365,R,ugm-3,45.75697,R,ugm-3,51.15982,R,ugm-3,15.31700,R,ugm-3
06-01-2019,19:00,5.87275,R,ugm-3,50.65006,R,ugm-3,59.65482,R,ugm-3,13.17162,R,ugm-3
06-01-2019,20:00,3.36910,R,ugm-3,44.09561,R,ugm-3,49.26149,R,ugm-3,20.10668,R,ugm-3
06-01-2019,21:00,2.31819,R,ugm-3,38.01878,R,ugm-3,41.57328,R,ugm-3,22.70109,R,ugm-3
06-01-2019,22:00,2.25637,R,ugm-3,36.54745,R,ugm-3,40.00717,R,ugm-3,21.25421,R,ugm-3
06-01-2019,23:00,41.91286,R,ugm-3,62.68489,R,ugm-3,126.95038,R,ugm-3,7.68345,R,ugm-3
06-01-2019,24:00,56.62563,R,ugm-3,71.44796,R,ugm-3,158.27272,R,ugm-3,1.59656,R,ugm-3
07-01-2019,01:00,22.12318,R,ugm-3,58.16454,R,ugm-3,92.08627,R,ugm-3,3.12660,R,ugm-3
07-01-2019,02:00,1.48036,R,ugm-3,26.21499,R,ugm-3,28.48485,R,ugm-3,19.02567,R,ugm-3
07-01-2019,03:00,1.91213,R,ugm-3,27.38457,R,ugm-3,30.31647,R,ugm-3,18.75958,R,ugm-3
07-01-2019,04:00,4.71865,R,ugm-3,39.09219,R,ugm-3,46.32735,R,ugm-3,13.12173,R,ugm-3
07-01-2019,05:00,11.53448,R,ugm-3,47.68393,R,ugm-3,65.36989,R,ugm-3,17.26281,R,ugm-3
07-01-2019,06:00,41.88189,R,ugm-3,74.38511,R,ugm-3,138.60311,R,ugm-3,6.88517,R,ugm-3
07-01-2019,07:00,105.72247,R,ugm-3,101.26880,R,ugm-3,263.37432,R,ugm-3,1.74624,R,ugm-3
07-01-2019,08:00,66.06112,R,ugm-3,88.46984,R,ugm-3,189.76215,R,ugm-3,7.23441,R,ugm-3
07-01-2019,09:00,58.41259,R,ugm-3,85.03919,R,ugm-3,174.60391,R,ugm-3,8.88087,R,ugm-3
07-01-2019,10:00,55.45187,R,ugm-3,78.25760,R,ugm-3,163.28261,R,ugm-3,11.72474,R,ugm-3
07-01-2019,11:00,28.00350,R,ugm-3,60.42211,R,ugm-3,103.36021,R,ugm-3,18.65980,R,ugm-3
07-01-2019,12:00,29.60723,R,ugm-3,58.81575,R,ugm-3,104.21286,R,ugm-3,20.25636,R,ugm-3
07-01-2019,13:00,24.21007,R,ugm-3,59.22793,R,ugm-3,96.34953,R,ugm-3,22.35184,R,ugm-3
07-01-2019,14:00,20.47833,R,ugm-3,55.23911,R,ugm-3,86.63878,R,ugm-3,25.69464,R,ugm-3
07-01-2019,15:00,22.72971,R,ugm-3,59.08194,R,ugm-3,93.93368,R,ugm-3,23.24991,R,ugm-3
07-01-2019,16:00,20.35497,R,ugm-3,57.03883,R,ugm-3,88.24935,R,ugm-3,24.94625,R,ugm-3
07-01-2019,17:00,21.80449,R,ugm-3,62.49012,R,ugm-3,95.92320,R,ugm-3,21.15442,R,ugm-3
07-01-2019,18:00,12.49055,R,ugm-3,50.67071,R,ugm-3,69.82262,R,ugm-3,30.88346,R,ugm-3
07-01-2019,19:00,3.60838,R,ugm-3,29.94697,R,ugm-3,35.47974,R,ugm-3,45.15271,R,ugm-3
07-01-2019,20:00,4.19436,R,ugm-3,33.31174,R,ugm-3,39.74300,R,ugm-3,41.90970,R,ugm-3
07-01-2019,21:00,3.20745,R,ugm-3,31.22489,R,ugm-3,36.14292,R,ugm-3,41.90970,R,ugm-3
07-01-2019,22:00,1.72709,R,ugm-3,21.08395,R,ugm-3,23.73211,R,ugm-3,45.20261,R,ugm-3
07-01-2019,23:00,0.86354,R,ugm-3,14.87628,R,ugm-3,16.20036,R,ugm-3,47.49766,R,ugm-3
07-01-2019,24:00,1.32616,R,ugm-3,9.90370,R,ugm-3,11.93711,R,ugm-3,61.71702,R,ugm-3
08-01-2019,01:00,0.45133,R,ugm-3,7.18812,R,ugm-3,7.88015,R,ugm-3,69.25079,R,ugm-3
08-01-2019,02:00,0.32824,R,ugm-3,6.62036,R,ugm-3,7.12365,R,ugm-3,69.25079,R,ugm-3
08-01-2019,03:00,0.24618,R,ugm-3,5.81632,R,ugm-3,6.19380,R,ugm-3,68.70197,R,ugm-3
08-01-2019,04:00,0.21541,R,ugm-3,7.37650,R,ugm-3,7.70678,R,ugm-3,64.51100,R,ugm-3
08-01-2019,05:00,0.33850,R,ugm-3,5.67477,R,ugm-3,6.19380,R,ugm-3,65.60864,R,ugm-3
08-01-2019,06:00,0.40004,R,ugm-3,9.17375,R,ugm-3,9.78714,R,ugm-3,61.76692,R,ugm-3
08-01-2019,07:00,0.64622,R,ugm-3,15.32104,R,ugm-3,16.31190,R,ugm-3,56.72777,R,ugm-3
08-01-2019,08:00,1.20013,R,ugm-3,23.73878,R,ugm-3,25.57896,R,ugm-3,47.99659,R,ugm-3
08-01-2019,09:00,3.35421,R,ugm-3,28.09541,R,ugm-3,33.23846,R,ugm-3,42.50841,R,ugm-3
08-01-2019,10:00,3.01571,R,ugm-3,25.06837,R,ugm-3,29.69239,R,ugm-3,46.10067,R,ugm-3
08-01-2019,11:00,4.18506,R,ugm-3,20.91134,R,ugm-3,27.32835,R,ugm-3,53.23530,R,ugm-3
08-01-2019,12:00,3.66193,R,ugm-3,18.64021,R,ugm-3,24.25509,R,ugm-3,56.02928,R,ugm-3
08-01-2019,13:00,3.20034,R,ugm-3,16.93664,R,ugm-3,21.84377,R,ugm-3,57.92519,R,ugm-3
08-01-2019,14:00,2.86185,R,ugm-3,17.73935,R,ugm-3,22.12745,R,ugm-3,57.17681,R,ugm-3
08-01-2019,15:00,2.58489,R,ugm-3,20.33893,R,ugm-3,24.30237,R,ugm-3,54.48261,R,ugm-3
08-01-2019,16:00,4.43124,R,ugm-3,32.25953,R,ugm-3,39.05401,R,ugm-3,43.05723,R,ugm-3
08-01-2019,17:00,2.49258,R,ugm-3,43.60083,R,ugm-3,47.42272,R,ugm-3,32.33034,R,ugm-3
08-01-2019,18:00,2.21562,R,ugm-3,42.70162,R,ugm-3,46.09886,R,ugm-3,33.62755,R,ugm-3
08-01-2019,19:00,1.60017,R,ugm-3,39.15361,R,ugm-3,41.60717,R,ugm-3,33.97679,R,ugm-3
08-01-2019,20:00,2.30794,R,ugm-3,43.12744,R,ugm-3,46.66623,R,ugm-3,28.88776,R,ugm-3
08-01-2019,21:00,2.46180,R,ugm-3,41.28397,R,ugm-3,45.05868,R,ugm-3,27.59055,R,ugm-3
08-01-2019,22:00,1.90790,R,ugm-3,38.35081,R,ugm-3,41.27621,R,ugm-3,25.59485,R,ugm-3
08-01-2019,23:00,2.33871,R,ugm-3,41.51998,R,ugm-3,45.10596,R,ugm-3,21.50367,R,ugm-3
08-01-2019,24:00,1.13858,R,ugm-3,30.59432,R,ugm-3,32.34012,R,ugm-3,29.28690,R,ugm-3
09-01-2019,01:00,1.18723,R,ugm-3,29.76697,R,ugm-3,31.58736,R,ugm-3,30.53421,R,ugm-3
09-01-2019,02:00,0.98253,R,ugm-3,21.96376,R,ugm-3,23.47029,R,ugm-3,36.05565,R,ugm-3
09-01-2019,03:00,0.79831,R,ugm-3,20.15404,R,ugm-3,21.37810,R,ugm-3,37.07013,R,ugm-3
09-01-2019,04:00,0.67549,R,ugm-3,13.73544,R,ugm-3,14.77118,R,ugm-3,47.34798,R,ugm-3
09-01-2019,05:00,0.82901,R,ugm-3,13.83039,R,ugm-3,15.10153,R,ugm-3,49.84261,R,ugm-3
09-01-2019,06:00,3.50028,R,ugm-3,16.10547,R,ugm-3,21.47249,R,ugm-3,49.94239,R,ugm-3
09-01-2019,07:00,1.90366,R,ugm-3,26.19873,R,ugm-3,29.11764,R,ugm-3,41.85981,R,ugm-3
09-01-2019,08:00,3.96084,R,ugm-3,39.04261,R,ugm-3,45.11582,R,ugm-3,32.03099,R,ugm-3
09-01-2019,09:00,9.33408,R,ugm-3,47.36825,R,ugm-3,61.68030,R,ugm-3,27.54066,R,ugm-3
09-01-2019,10:00,4.51352,R,ugm-3,29.65338,R,ugm-3,36.57401,R,ugm-3,43.25680,R,ugm-3
09-01-2019,11:00,5.06619,R,ugm-3,25.40812,R,ugm-3,33.17617,R,ugm-3,48.09637,R,ugm-3
09-01-2019,12:00,5.49605,R,ugm-3,24.98497,R,ugm-3,33.41213,R,ugm-3,51.23960,R,ugm-3
09-01-2019,13:00,3.83803,R,ugm-3,25.30921,R,ugm-3,31.19409,R,ugm-3,52.28734,R,ugm-3
09-01-2019,14:00,4.57493,R,ugm-3,26.25577,R,ugm-3,33.27055,R,ugm-3,51.33938,R,ugm-3
09-01-2019,15:00,4.75915,R,ugm-3,25.40698,R,ugm-3,32.70425,R,ugm-3,51.23960,R,ugm-3
09-01-2019,16:00,4.20648,R,ugm-3,30.26575,R,ugm-3,36.71559,R,ugm-3,48.14626,R,ugm-3
09-01-2019,17:00,1.90366,R,ugm-3,32.75846,R,ugm-3,35.67736,R,ugm-3,45.55185,R,ugm-3
09-01-2019,18:00,2.82479,R,ugm-3,35.68777,R,ugm-3,40.01905,R,ugm-3,40.76217,R,ugm-3
09-01-2019,19:00,1.90366,R,ugm-3,37.61926,R,ugm-3,40.53817,R,ugm-3,37.26970,R,ugm-3
09-01-2019,20:00,1.99577,R,ugm-3,41.11183,R,ugm-3,44.17197,R,ugm-3,31.43228,R,ugm-3
09-01-2019,21:00,2.21070,R,ugm-3,46.39816,R,ugm-3,49.78785,R,ugm-3,24.19786,R,ugm-3
09-01-2019,22:00,1.28958,R,ugm-3,32.33146,R,ugm-3,34.30879,R,ugm-3,34.42583,R,ugm-3
09-01-2019,23:00,0.92113,R,ugm-3,31.52783,R,ugm-3,32.94021,R,ugm-3,32.57980,R,ugm-3
09-01-2019,24:00,1.41239,R,ugm-3,32.14315,R,ugm-3,34.30879,R,ugm-3,29.83572,R,ugm-3
10-01-2019,01:00,0.98035,R,ugm-3,34.17000,R,ugm-3,35.67318,R,ugm-3,24.08145,R,ugm-3
10-01-2019,02:00,1.79730,R,ugm-3,36.99967,R,ugm-3,39.75550,R,ugm-3,18.42696,R,ugm-3
10-01-2019,03:00,2.81850,R,ugm-3,43.34728,R,ugm-3,47.66892,R,ugm-3,10.42753,R,ugm-3
10-01-2019,04:00,2.63469,R,ugm-3,45.27775,R,ugm-3,49.31754,R,ugm-3,9.23011,R,ugm-3
10-01-2019,05:00,2.78787,R,ugm-3,42.64059,R,ugm-3,46.91526,R,ugm-3,9.62925,R,ugm-3
10-01-2019,06:00,4.80983,R,ugm-3,45.00431,R,ugm-3,52.37928,R,ugm-3,7.88302,R,ugm-3
10-01-2019,07:00,7.01562,R,ugm-3,46.19121,R,ugm-3,56.94834,R,ugm-3,7.73334,R,ugm-3
10-01-2019,08:00,30.17634,R,ugm-3,56.60468,R,ugm-3,102.87442,R,ugm-3,2.24516,R,ugm-3
10-01-2019,09:00,48.37405,R,ugm-3,63.18180,R,ugm-3,137.35431,R,ugm-3,1.74624,R,ugm-3
10-01-2019,10:00,75.73188,R,ugm-3,69.79759,R,ugm-3,185.91819,R,ugm-3,2.24516,R,ugm-3
10-01-2019,11:00,77.81512,R,ugm-3,68.81721,R,ugm-3,188.13207,R,ugm-3,3.29291,R,ugm-3
10-01-2019,12:00,55.32839,R,ugm-3,60.90308,R,ugm-3,145.73876,R,ugm-3,5.08904,R,ugm-3
10-01-2019,13:00,39.42837,R,ugm-3,56.21980,R,ugm-3,116.67580,R,ugm-3,9.18022,R,ugm-3
10-01-2019,14:00,7.93469,R,ugm-3,40.58975,R,ugm-3,52.75611,R,ugm-3,24.74668,R,ugm-3
10-01-2019,15:00,6.61735,R,ugm-3,41.47916,R,ugm-3,51.62563,R,ugm-3,25.84432,R,ugm-3
10-01-2019,16:00,9.49712,R,ugm-3,51.90123,R,ugm-3,66.46328,R,ugm-3,13.52087,R,ugm-3
10-01-2019,17:00,7.50579,R,ugm-3,56.69740,R,ugm-3,68.20612,R,ugm-3,6.88517,R,ugm-3
10-01-2019,18:00,17.37054,R,ugm-3,63.75749,R,ugm-3,90.39195,R,ugm-3,3.44258,R,ugm-3
10-01-2019,19:00,44.05439,R,ugm-3,69.66388,R,ugm-3,137.21300,R,ugm-3,0.89807,R,ugm-3
10-01-2019,20:00,86.20935,R,ugm-3,80.34593,R,ugm-3,212.53177,R,ugm-3,1.44688,R,ugm-3
10-01-2019,21:00,66.75557,R,ugm-3,71.69095,R,ugm-3,174.04807,R,ugm-3,1.44688,R,ugm-3
10-01-2019,22:00,32.50466,R,ugm-3,55.24850,R,ugm-3,105.08829,R,ugm-3,1.49678,R,ugm-3
10-01-2019,23:00,12.80580,R,ugm-3,48.28822,R,ugm-3,67.92350,R,ugm-3,2.74409,R,ugm-3
10-01-2019,24:00,1.89943,R,ugm-3,32.03852,R,ugm-3,34.95092,R,ugm-3,18.70969,R,ugm-3
11-01-2019,01:00,1.79330,R,ugm-3,30.34893,R,ugm-3,33.09861,R,ugm-3,18.02782,R,ugm-3
11-01-2019,02:00,1.54876,R,ugm-3,27.21342,R,ugm-3,29.58815,R,ugm-3,20.55571,R,ugm-3
11-01-2019,03:00,1.22270,R,ugm-3,22.10290,R,ugm-3,23.97769,R,ugm-3,25.74453,R,ugm-3
11-01-2019,04:00,1.25327,R,ugm-3,22.90230,R,ugm-3,24.82396,R,ugm-3,26.64260,R,ugm-3
11-01-2019,05:00,2.32313,R,ugm-3,23.42456,R,ugm-3,26.98665,R,ugm-3,25.39528,R,ugm-3
11-01-2019,06:00,1.49781,R,ugm-3,24.73706,R,ugm-3,27.03366,R,ugm-3,22.40173,R,ugm-3
11-01-2019,07:00,5.68556,R,ugm-3,38.39136,R,ugm-3,47.10910,R,ugm-3,10.82667,R,ugm-3
11-01-2019,08:00,15.16150,R,ugm-3,49.34395,R,ugm-3,72.59127,R,ugm-3,3.69205,R,ugm-3
11-01-2019,09:00,31.11776,R,ugm-3,54.68558,R,ugm-3,102.39882,R,ugm-3,2.04559,R,ugm-3
11-01-2019,10:00,32.15706,R,ugm-3,52.43380,R,ugm-3,101.74061,R,ugm-3,5.48818,R,ugm-3
11-01-2019,11:00,11.27943,R,ugm-3,40.29858,R,ugm-3,57.59346,R,ugm-3,16.06539,R,ugm-3
11-01-2019,12:00,9.93445,R,ugm-3,36.38993,R,ugm-3,51.62254,R,ugm-3,20.90496,R,ugm-3
11-01-2019,13:00,8.19210,R,ugm-3,32.94954,R,ugm-3,45.51059,R,ugm-3,24.94625,R,ugm-3
11-01-2019,14:00,5.89954,R,ugm-3,30.30578,R,ugm-3,39.35161,R,ugm-3,29.08733,R,ugm-3
11-01-2019,15:00,6.51089,R,ugm-3,33.97587,R,ugm-3,43.95909,R,ugm-3,25.19571,R,ugm-3
11-01-2019,16:00,11.82964,R,ugm-3,51.11467,R,ugm-3,69.25320,R,ugm-3,13.37119,R,ugm-3
11-01-2019,17:00,14.55015,R,ugm-3,64.66795,R,ugm-3,86.97788,R,ugm-3,5.13893,R,ugm-3
11-01-2019,18:00,26.44093,R,ugm-3,73.61039,R,ugm-3,114.15259,R,ugm-3,2.69420,R,ugm-3
11-01-2019,19:00,28.58066,R,ugm-3,78.69821,R,ugm-3,122.52127,R,ugm-3,2.34495,R,ugm-3
11-01-2019,20:00,16.13967,R,ugm-3,66.97926,R,ugm-3,91.72640,R,ugm-3,6.93506,R,ugm-3
11-01-2019,21:00,2.17030,R,ugm-3,38.37462,R,ugm-3,41.70237,R,ugm-3,31.58195,R,ugm-3
11-01-2019,22:00,3.94321,R,ugm-3,52.25251,R,ugm-3,58.29868,R,ugm-3,26.09378,R,ugm-3
11-01-2019,23:00,4.61570,R,ugm-3,52.96094,R,ugm-3,60.03824,R,ugm-3,24.29765,R,ugm-3
11-01-2019,24:00,8.40608,R,ugm-3,58.19765,R,ugm-3,71.08678,R,ugm-3,18.46023,R,ugm-3
12-01-2019,01:00,11.06105,R,ugm-3,59.68652,R,ugm-3,76.64656,R,ugm-3,16.09865,R,ugm-3
12-01-2019,02:00,8.01113,R,ugm-3,57.73073,R,ugm-3,70.01429,R,ugm-3,15.43341,R,ugm-3
12-01-2019,03:00,2.74493,R,ugm-3,29.76593,R,ugm-3,33.97476,R,ugm-3,36.82067,R,ugm-3
12-01-2019,04:00,2.28744,R,ugm-3,27.18255,R,ugm-3,30.68991,R,ugm-3,36.92045,R,ugm-3
12-01-2019,05:00,4.14789,R,ugm-3,31.27501,R,ugm-3,37.63502,R,ugm-3,30.78367,R,ugm-3
12-01-2019,06:00,9.24126,R,ugm-3,40.03033,R,ugm-3,54.20007,R,ugm-3,23.24991,R,ugm-3
12-01-2019,07:00,14.18214,R,ugm-3,47.00163,R,ugm-3,68.74727,R,ugm-3,18.36044,R,ugm-3
12-01-2019,08:00,27.17480,R,ugm-3,57.15968,R,ugm-3,98.82714,R,ugm-3,13.27141,R,ugm-3
12-01-2019,09:00,21.16646,R,ugm-3,56.56472,R,ugm-3,89.01950,R,ugm-3,17.56216,R,ugm-3
12-01-2019,10:00,16.77457,R,ugm-3,53.30352,R,ugm-3,79.02417,R,ugm-3,20.85507,R,ugm-3
12-01-2019,11:00,11.07122,R,ugm-3,44.16956,R,ugm-3,61.14518,R,ugm-3,27.69034,R,ugm-3
12-01-2019,12:00,5.94735,R,ugm-3,33.34931,R,ugm-3,42.46845,R,ugm-3,34.67529,R,ugm-3
12-01-2019,13:00,2.56193,R,ugm-3,20.94278,R,ugm-3,24.87103,R,ugm-3,40.86196,R,ugm-3
12-01-2019,14:00,1.58596,R,ugm-3,16.47960,R,ugm-3,18.91137,R,ugm-3,48.19616,R,ugm-3
12-01-2019,15:00,2.83643,R,ugm-3,15.40691,R,ugm-3,19.75604,R,ugm-3,52.38713,R,ugm-3
12-01-2019,16:00,1.06747,R,ugm-3,14.78749,R,ugm-3,16.42426,R,ugm-3,54.38283,R,ugm-3
12-01-2019,17:00,1.25047,R,ugm-3,17.83869,R,ugm-3,19.75604,R,ugm-3,53.33508,R,ugm-3
12-01-2019,18:00,1.52496,R,ugm-3,18.87252,R,ugm-3,21.21076,R,ugm-3,53.23530,R,ugm-3
12-01-2019,19:00,1.95195,R,ugm-3,23.33280,R,ugm-3,26.32575,R,ugm-3,49.19401,R,ugm-3
12-01-2019,20:00,1.31147,R,ugm-3,18.54290,R,ugm-3,20.55379,R,ugm-3,50.09207,R,ugm-3
12-01-2019,21:00,1.31147,R,ugm-3,16.00888,R,ugm-3,18.01976,R,ugm-3,52.03788,R,ugm-3
12-01-2019,22:00,0.70148,R,ugm-3,12.90850,R,ugm-3,13.98409,R,ugm-3,54.13336,R,ugm-3
12-01-2019,23:00,0.57949,R,ugm-3,11.50006,R,ugm-3,12.38859,R,ugm-3,55.87960,R,ugm-3
12-01-2019,24:00,0.73198,R,ugm-3,10.23385,R,ugm-3,11.35621,R,ugm-3,57.27659,R,ugm-3
13-01-2019,01:00,0.44632,R,ugm-3,7.68402,R,ugm-3,8.36836,R,ugm-3,60.66928,R,ugm-3
13-01-2019,02:00,0.36517,R,ugm-3,6.62188,R,ugm-3,7.18181,R,ugm-3,61.40104,R,ugm-3
13-01-2019,03:00,0.33474,R,ugm-3,5.10728,R,ugm-3,5.62054,R,ugm-3,63.41337,R,ugm-3
13-01-2019,04:00,0.63905,R,ugm-3,9.09028,R,ugm-3,10.07014,R,ugm-3,57.87530,R,ugm-3
13-01-2019,05:00,0.69991,R,ugm-3,11.01099,R,ugm-3,12.08417,R,ugm-3,53.53465,R,ugm-3
13-01-2019,06:00,1.82585,R,ugm-3,18.37111,R,ugm-3,21.17071,R,ugm-3,45.90110,R,ugm-3
13-01-2019,07:00,2.89094,R,ugm-3,22.96744,R,ugm-3,27.40015,R,ugm-3,42.95744,R,ugm-3
13-01-2019,08:00,1.64327,R,ugm-3,14.85721,R,ugm-3,17.37685,R,ugm-3,50.24175,R,ugm-3
13-01-2019,09:00,5.17325,R,ugm-3,28.60132,R,ugm-3,36.53353,R,ugm-3,41.26110,R,ugm-3
13-01-2019,10:00,6.93824,R,ugm-3,37.69818,R,ugm-3,48.33667,R,ugm-3,36.02239,R,ugm-3
13-01-2019,11:00,1.82585,R,ugm-3,12.46954,R,ugm-3,15.26914,R,ugm-3,55.63014,R,ugm-3
13-01-2019,12:00,1.76499,R,ugm-3,11.01721,R,ugm-3,13.72349,R,ugm-3,59.17251,R,ugm-3